TimeNZDT,TemperatureF,Dew PointF,Humidity,Sea Level PressureIn,VisibilityMPH,Wind Direction,Wind SpeedMPH,Gust SpeedMPH,PrecipitationIn,Events,Conditions,WindDirDegrees,DateUTC
12:00 AM,55.4,53.6,94,29.89,6.2,ENE,13.8,-,N/A,,Overcast,60,2013-11-07 11:00:00
12:30 AM,55.4,53.6,94,29.89,6.2,ENE,10.4,-,N/A,,Overcast,60,2013-11-07 11:30:00
1:00 AM,55.4,55.4,100,29.89,6.2,ENE,10.4,-,N/A,,Overcast,60,2013-11-07 12:00:00
1:30 AM,55.4,53.6,94,29.86,6.2,ENE,6.9,-,N/A,,Overcast,60,2013-11-07 12:30:00
2:00 AM,55.4,53.6,94,29.86,6.2,NE,10.4,-,N/A,,Overcast,50,2013-11-07 13:00:00
2:30 AM,55.4,55.4,100,29.86,-9999.0,ENE,13.8,-,N/A,,Overcast,70,2013-11-07 13:30:00
3:00 AM,55.4,53.6,94,29.83,2.5,NE,11.5,-,N/A,,Overcast,50,2013-11-07 14:00:00
3:30 AM,53.6,53.6,100,29.83,1.2,ENE,13.8,-,N/A,,Overcast,60,2013-11-07 14:30:00
4:00 AM,55.4,55.4,100,29.83,0.3,ENE,12.7,-,N/A,Fog,Fog,60,2013-11-07 15:00:00
4:30 AM,55.4,55.4,100,29.83,1.6,ENE,15.0,-,N/A,,Overcast,60,2013-11-07 15:30:00
5:00 AM,55.4,55.4,100,29.83,1.6,NE,12.7,-,N/A,,Overcast,50,2013-11-07 16:00:00
5:30 AM,53.6,53.6,100,29.83,-9999.0,NE,13.8,-,N/A,,Overcast,50,2013-11-07 16:30:00
6:00 AM,55.4,55.4,100,29.80,6.2,NE,11.5,-,N/A,,Overcast,50,2013-11-07 17:00:00
6:30 AM,55.4,55.4,100,29.80,6.2,ENE,12.7,-,N/A,,Overcast,70,2013-11-07 17:30:00
7:00 AM,55.4,55.4,100,29.80,6.2,ENE,12.7,-,N/A,,Overcast,60,2013-11-07 18:00:00
7:30 AM,55.4,53.6,94,29.80,6.2,ENE,13.8,-,N/A,,Mostly Cloudy,60,2013-11-07 18:30:00
8:00 AM,55.4,55.4,100,29.83,6.2,NE,9.2,-,N/A,,Overcast,50,2013-11-07 19:00:00
8:30 AM,57.2,55.4,94,29.83,6.2,ENE,9.2,-,N/A,,Overcast,60,2013-11-07 19:30:00
9:00 AM,57.2,55.4,94,29.83,6.2,ENE,9.2,-,N/A,,Overcast,70,2013-11-07 20:00:00
9:30 AM,59.0,55.4,88,29.83,6.2,East,10.4,-,N/A,,Overcast,80,2013-11-07 20:30:00
10:00 AM,59.0,55.4,88,29.83,6.2,East,11.5,-,N/A,,Overcast,90,2013-11-07 21:00:00
10:30 AM,62.6,57.2,82,29.83,6.2,East,12.7,-,N/A,,Mostly Cloudy,100,2013-11-07 21:30:00
11:00 AM,62.6,55.4,77,29.83,6.2,East,11.5,-,N/A,,Partly Cloudy,100,2013-11-07 22:00:00
11:30 AM,62.6,55.4,77,29.83,6.2,ENE,8.1,-,N/A,,Unknown,60,2013-11-07 22:30:00
12:00 PM,62.6,55.4,77,29.83,6.2,East,5.8,-,N/A,,Partly Cloudy,100,2013-11-07 23:00:00
12:30 PM,64.4,55.4,73,29.83,6.2,East,5.8,-,N/A,,Scattered Clouds,80,2013-11-07 23:30:00
1:00 PM,66.2,53.6,64,29.83,6.2,SE,2.3,-,N/A,,Unknown,140,2013-11-08 00:00:00
1:30 PM,66.2,57.2,73,29.83,6.2,SSW,13.8,-,N/A,,Mostly Cloudy,200,2013-11-08 00:30:00
2:00 PM,64.4,57.2,77,29.83,6.2,SSW,17.3,-,N/A,,Mostly Cloudy,210,2013-11-08 01:00:00
2:30 PM,62.6,55.4,77,29.86,6.2,SW,18.4,-,N/A,,Mostly Cloudy,220,2013-11-08 01:30:00
3:00 PM,62.6,55.4,77,29.86,6.2,SW,16.1,-,N/A,,Overcast,220,2013-11-08 02:00:00
3:30 PM,62.6,55.4,77,29.86,6.2,SW,16.1,-,N/A,,Overcast,220,2013-11-08 02:30:00
4:00 PM,60.8,55.4,82,29.86,6.2,SW,16.1,-,N/A,,Overcast,220,2013-11-08 03:00:00
4:30 PM,60.8,55.4,82,29.86,6.2,SW,16.1,-,N/A,,Overcast,220,2013-11-08 03:30:00
5:00 PM,59.0,55.4,88,29.86,6.2,SSW,11.5,-,N/A,,Overcast,210,2013-11-08 04:00:00
5:30 PM,57.2,57.2,100,29.86,3.1,SSW,13.8,-,N/A,,Light Drizzle,210,2013-11-08 04:30:00
6:00 PM,55.4,55.4,100,29.86,3.1,SW,18.4,-,N/A,Rain,Light Rain,220,2013-11-08 05:00:00
6:30 PM,55.4,53.6,94,29.89,5.0,SW,16.1,-,N/A,Rain,Light Rain,220,2013-11-08 05:30:00
7:00 PM,53.6,51.8,94,29.89,3.7,WSW,15.0,-,N/A,,Overcast,240,2013-11-08 06:00:00
7:30 PM,53.6,51.8,94,29.89,3.7,SW,13.8,-,N/A,Rain,Light Rain Showers,230,2013-11-08 06:30:00
8:00 PM,51.8,51.8,100,29.92,3.1,SW,10.4,-,N/A,Rain,Light Rain Showers,230,2013-11-08 07:00:00
8:30 PM,51.8,51.8,100,29.92,5.6,SW,10.4,-,N/A,Rain,Light Rain Showers,220,2013-11-08 07:30:00
9:00 PM,51.8,51.8,100,29.92,3.7,SW,12.7,-,N/A,Rain,Light Rain Showers,220,2013-11-08 08:00:00
9:30 PM,51.8,51.8,100,29.95,3.1,SW,10.4,-,N/A,,Light Drizzle,220,2013-11-08 08:30:00
10:00 PM,51.8,50.0,94,29.95,6.2,SW,10.4,-,N/A,,Overcast,230,2013-11-08 09:00:00
10:30 PM,51.8,50.0,94,29.95,6.2,SW,10.4,-,N/A,,Mostly Cloudy,230,2013-11-08 09:30:00
11:00 PM,51.8,50.0,94,29.95,6.2,WSW,6.9,-,N/A,,Overcast,240,2013-11-08 10:00:00
11:30 PM,51.8,50.0,94,29.95,6.2,WSW,6.9,-,N/A,,Mostly Cloudy,240,2013-11-08 10:30:00